Location: ??
(35.4032°N, 139.3073°E)
Time: 12:12:56
(UTC+00:00)

NOAA 11 - Pass Details

Date: 13 April 2024
Orbit: 833 x 848 km, 98.5° (Epoch: 21 May)

Event Time Altitude Azimuth Distance (km) Brightness Sun altitude
Rises 18:35:44 0° 6° (N) 3,391 7.8 -19.2°
Reaches altitude 10° 18:38:08 10° 2° (N) 2,455 7.0 -18.8°
Maximum altitude 18:43:24 52° 287° (WNW) 1,034 4.4 -17.8°
Enters shadow 18:46:13 26° 224° (SW) 1,578 5.1 -17.3°
